Weather in Sarzhenka

Russia / Saint-Petersburg and Leningrad Oblast     60°11′59″N   30°14′32″E
temp.,
°C
wind,
m/s
gust,
m/s
humid.,
%
clouds,
%
prec.,
mm/h
press.,
hPa
HPBL,
m
28 november, sun
sun2800:00−3ne71376100 0.0 1002807
03:00−3ne71374100 0.0 1001834
06:00−3ne61283100 0.0 1000911
09:00−3ne61291100 0.4 1000909
12:00−4ne51193100 1.2 1001865
15:00−4ne51093100 2.9 1002798
18:00−4ne499197 0.6 1004754
21:00−5ne3994100 0.9 1006625
29 november, mon
mon2900:00−4ne3894100 0.4 1008659
03:00−5ene3895100 0.7 1008539
06:00−5ene3991100 0.4 1008652
09:00−5ene51082100 0.4 1008892
12:00−5ene51078100 0.0 1008803
15:00−5ene51184100 0.1 1005771
18:00−5ene61286100 0.1 1002690
21:00−5ene61289100 0.1 999679
30 november, tue
tue3000:00−4ne61393100 0.9 995677
03:00−4ne61294100 2.8 990694
06:00−3ne51195100 2.3 986627
09:00−3ne51095100 3.8 984592
12:00−3nne4996100 0.9 982569
15:00−3n4996100 2.0 980617
18:00−5nnw41095100 1.7 981446
21:00−6nw4994100 2.6 981387
1 december, wed
wed100:00−6nw3993100 0.6 981502
03:00−6nw4109296 0.8 982592
06:00−6wnw4992100 0.3 983717
09:00−6wnw41090100 0.4 985684
12:00−7wnw4109096 0.1 988690
15:00−8w4109187 0.1 989549
18:00−10w310927 0.0 991294
21:00−11w399410 0.0 991196
2 december, thu
thu200:00−14w119861 0.0 99228
03:00−15wnw119864 0.0 99212
06:00−15nnw009885 0.0 9919
09:00−15ne1197100 0.0 99015
12:00−10ne249294 0.0 990152
15:00−9nne3791100 0.0 990237
18:00−8n3891100 0.0 992244
21:00−8nnw41088100 0.0 994299